period_start,C,m1,H,J0,J1,J2,J3,J4,J5,JA,JB,JC,JD,JJ,JK,JN,#
2017-07-22 00:02:42,0.00,0.25,0.00,25.35,29.62,32.52,13.78,44.38,1014.16,2024.00,3448.00,2994.04,3433.93,600.05,590.03,7.20,0000 0000 0000 0000 000000
2017-07-22 00:07:43,0.02,0.26,0.00,25.37,29.64,32.51,13.81,44.40,1013.97,2023.99,3447.47,2994.00,3433.20,599.78,589.54,7.25,0000 0000 0000 0000 000000
2017-07-22 00:12:44,0.01,0.26,0.00,25.38,29.65,32.51,13.74,44.27,1013.86,2023.99,3447.01,2993.88,3433.00,599.88,589.57,7.30,0000 0000 0000 0000 000000
2017-07-22 00:17:46,0.04,0.26,0.00,25.40,29.66,32.53,13.79,44.35,1013.90,2023.98,3446.40,2993.10,3432.63,600.05,589.69,7.35,0000 0000 0000 0000 000000
2017-07-22 00:22:47,0.00,0.26,0.00,25.40,29.67,32.54,13.79,44.42,1013.95,2023.94,3445.97,2992.98,3432.02,600.14,589.85,7.40,0000 0000 0000 0000 000000
2017-07-22 00:27:48,0.03,0.26,0.00,25.40,29.67,32.54,13.73,44.43,1013.97,2023.93,3445.22,2992.69,3431.88,599.92,589.63,7.45,0000 0000 0000 0000 000000
2017-07-22 00:32:50,0.03,0.26,0.00,25.40,29.69,32.56,13.78,44.33,1013.91,2023.94,3444.98,2992.04,3431.10,599.68,589.41,7.50,0000 0000 0000 0000 000000
2017-07-22 00:37:51,-0.00,0.26,0.00,25.40,29.70,32.59,13.79,44.38,1013.75,2023.83,3444.28,2991.99,3430.94,599.84,589.46,7.55,0000 0000 0000 0000 000000
2017-07-22 00:42:52,0.01,0.26,0.00,25.41,29.70,32.60,13.80,44.35,1013.71,2023.61,3443.92,2991.66,3430.21,600.16,589.67,7.60,0000 0000 0000 0000 000000
2017-07-22 00:47:53,0.01,0.26,0.00,25.43,29.72,32.59,13.76,44.31,1013.71,2023.47,3443.14,2991.08,3429.99,600.07,589.59,7.65,0000 0000 0000 0000 000000
2017-07-22 00:52:55,0.00,0.26,0.00,25.45,29.72,32.60,13.75,44.33,1013.70,2023.24,3442.77,2990.99,3429.43,599.77,589.25,7.70,0000 0000 0000 0000 000000
2017-07-22 00:57:56,0.04,0.26,0.00,25.45,29.73,32.60,13.82,44.39,1013.69,2023.37,3442.06,2990.70,3429.02,600.17,589.52,7.75,0000 0000 0000 0000 000000
2017-07-22 01:02:57,0.00,0.27,0.00,25.46,29.75,32.63,13.80,44.40,1013.69,2023.16,3441.65,2990.06,3428.83,600.09,589.50,7.80,0000 0000 0000 0000 000000
2017-07-22 01:07:58,0.02,0.27,0.00,25.49,29.75,32.64,13.76,44.40,1013.69,2023.18,3441.03,2989.99,3428.12,600.03,589.35,7.85,0000 0000 0000 0000 000000
2017-07-22 01:13:00,0.01,0.27,0.00,25.50,29.76,32.65,13.74,44.32,1013.69,2023.11,3440.60,2989.63,3427.96,599.91,589.26,7.90,0000 0000 0000 0000 000000
2017-07-22 01:18:01,0.02,0.27,0.00,25.50,29.77,32.65,13.83,44.42,1013.69,2023.04,3439.99,2989.04,3427.27,600.01,589.53,7.95,0000 0000 0000 0000 000000
2017-07-22 01:23:02,0.02,0.27,0.00,25.52,29.77,32.66,13.83,44.37,1013.69,2023.03,3439.39,2988.97,3427.00,600.02,589.33,8.01,0000 0000 0000 0000 000000
2017-07-22 01:28:04,0.02,0.27,0.00,25.53,29.78,32.68,13.68,44.39,1013.69,2023.01,3438.99,2988.62,3426.75,599.68,588.99,8.06,0000 0000 0000 0000 000000
2017-07-22 01:33:05,0.03,0.27,0.00,25.52,29.80,32.69,13.79,44.42,1013.69,2023.00,3438.35,2988.04,3426.06,600.07,589.37,8.11,0000 0000 0000 0000 000000
2017-07-22 01:38:07,0.00,0.27,0.00,25.54,29.80,32.69,13.79,44.34,1013.69,2023.00,3437.99,2987.99,3425.96,600.00,589.26,8.16,0000 0000 0000 0000 000000
2017-07-22 01:43:08,0.04,0.27,0.00,25.55,29.82,32.69,13.82,44.41,1013.69,2023.00,3437.39,2987.68,3425.26,600.31,589.62,8.21,0000 0000 0000 0000 000000
2017-07-22 01:48:09,0.01,0.28,0.00,25.56,29.82,32.72,13.71,44.35,1013.69,2023.00,3436.99,2987.07,3425.00,599.93,589.03,8.26,0000 0000 0000 0000 000000
2017-07-22 01:53:11,0.02,0.28,0.00,25.57,29.85,32.73,13.78,44.41,1013.65,2023.00,3436.36,2987.00,3424.70,600.20,589.23,8.31,0000 0000 0000 0000 000000
2017-07-22 01:58:12,0.01,0.28,0.00,25.58,29.85,32.72,13.79,44.33,1013.45,2022.99,3436.00,2986.77,3424.08,600.15,589.09,8.36,0000 0000 0000 0000 000000
2017-07-22 02:03:13,0.03,0.28,0.00,25.60,29.87,32.77,13.71,44.31,1013.36,2022.98,3435.45,2986.06,3423.99,600.06,588.99,8.41,0000 0000 0000 0000 000000
2017-07-22 02:08:14,0.01,0.28,0.00,25.62,29.87,32.78,13.80,44.41,1013.36,2022.98,3435.00,2986.00,3423.41,600.20,589.13,8.46,0000 0000 0000 0000 000000
2017-07-22 02:13:16,0.02,0.28,0.00,25.59,29.89,32.78,13.80,44.39,1013.23,2022.97,3434.52,2985.85,3423.01,600.21,588.98,8.51,0000 0000 0000 0000 000000
2017-07-22 02:18:17,0.02,0.28,0.00,25.52,29.90,32.80,13.77,44.16,1013.20,2022.97,3434.01,2985.19,3422.90,600.27,589.27,8.56,0000 0000 0000 0000 000000
2017-07-22 02:23:18,0.02,0.28,0.00,25.40,29.90,32.84,13.80,44.13,1013.20,2022.95,3433.57,2985.00,3422.20,600.08,589.40,8.61,0000 0000 0000 0000 000000
2017-07-22 02:28:20,0.01,0.28,0.00,25.33,29.89,32.83,13.79,44.16,1013.20,2022.97,3433.01,2984.99,3422.00,599.94,589.42,8.66,0000 0000 0000 0000 000000
2017-07-22 02:33:21,0.00,0.28,0.00,25.27,29.87,32.78,13.81,44.16,1013.20,2022.98,3432.89,2984.97,3421.98,600.37,589.89,8.71,0000 0000 0000 0000 000000
2017-07-22 02:38:22,0.02,0.28,0.00,25.23,29.86,32.72,13.75,44.13,1013.19,2022.99,3432.15,2984.63,3421.88,600.10,589.66,8.76,0000 0000 0000 0000 000000
2017-07-22 02:43:23,0.01,0.29,0.00,25.18,29.84,32.65,13.80,44.11,1013.17,2022.99,3431.98,2984.20,3421.40,599.90,589.56,8.81,0000 0000 0000 0000 000000
2017-07-22 02:48:24,0.02,0.29,0.00,25.15,29.81,32.61,13.71,44.14,1013.01,2023.01,3431.45,2984.02,3421.03,599.73,589.43,8.86,0000 0000 0000 0000 000000
2017-07-22 02:53:26,-0.00,0.29,0.00,25.11,29.78,32.56,13.76,44.08,1012.76,2023.03,3431.02,2984.00,3421.00,600.02,589.64,8.91,0000 0000 0000 0000 000000
2017-07-22 02:58:27,0.02,0.29,0.00,25.10,29.76,32.49,13.76,44.12,1012.73,2023.23,3430.99,2984.00,3421.00,599.92,589.48,8.96,0000 0000 0000 0000 000000
2017-07-22 03:03:28,0.05,0.29,0.00,25.10,29.73,32.42,13.80,44.17,1012.75,2023.65,3430.80,2984.00,3420.99,600.15,589.71,9.01,0000 0000 0000 0000 000000
2017-07-22 03:08:30,0.03,0.29,0.00,25.15,29.70,32.34,13.75,44.08,1012.72,2023.91,3430.06,2983.98,3420.96,599.96,589.29,9.06,0000 0000 0000 0000 000000
2017-07-22 03:13:31,0.01,0.29,0.00,25.19,29.66,32.26,13.72,44.03,1012.71,2023.97,3430.00,2983.97,3420.78,599.91,589.31,9.11,0000 0000 0000 0000 000000
2017-07-22 03:18:32,0.00,0.29,0.00,25.21,29.64,32.20,13.76,44.07,1012.71,2023.99,3429.96,2983.97,3420.50,599.91,589.33,9.16,0000 0000 0000 0000 000000
2017-07-22 03:23:33,0.01,0.29,0.00,25.15,29.61,32.18,13.77,44.20,1012.71,2023.99,3429.58,2983.90,3420.13,599.91,589.42,9.21,0000 0000 0000 0000 000000
2017-07-22 03:28:35,0.02,0.29,0.00,25.11,29.59,32.16,13.77,44.06,1012.71,2023.99,3429.06,2983.61,3420.02,599.97,589.52,9.26,0000 0000 0000 0000 000000
2017-07-22 03:33:36,0.01,0.30,0.00,25.11,29.56,32.13,13.69,44.13,1012.71,2023.99,3428.98,2983.12,3420.00,599.94,589.42,9.31,0000 0000 0000 0000 000000
2017-07-22 03:38:37,0.01,0.30,0.00,25.11,29.54,32.09,13.74,44.24,1012.70,2024.03,3428.42,2983.01,3419.98,600.07,589.60,9.36,0000 0000 0000 0000 000000
2017-07-22 03:43:39,0.01,0.30,0.00,25.13,29.51,32.04,13.77,44.18,1012.59,2024.15,3428.05,2983.00,3419.94,600.08,589.58,9.41,0000 0000 0000 0000 000000
2017-07-22 03:48:40,0.03,0.30,0.00,25.14,29.50,31.97,13.76,44.13,1012.53,2024.25,3427.99,2982.99,3419.32,600.12,589.62,9.46,0000 0000 0000 0000 000000
2017-07-22 03:53:41,0.04,0.30,0.00,25.16,29.47,31.93,13.76,44.13,1012.59,2024.61,3427.72,2982.97,3419.03,599.76,589.16,9.51,0000 0000 0000 0000 000000
2017-07-22 03:58:42,0.02,0.30,0.00,25.17,29.46,31.89,13.77,44.16,1012.32,2024.82,3427.08,2982.87,3419.00,600.20,589.38,9.56,0000 0000 0000 0000 000000
2017-07-22 04:03:43,0.02,0.30,0.00,25.18,29.44,31.86,13.69,44.18,1012.27,2024.95,3427.00,2982.49,3419.00,599.75,588.92,9.61,0000 0000 0000 0000 000000
2017-07-22 04:08:45,0.00,0.30,0.00,25.21,29.42,31.83,13.75,44.23,1012.25,2024.99,3426.98,2982.28,3419.00,599.94,589.03,9.66,0000 0000 0000 0000 000000
2017-07-22 04:13:46,0.07,0.30,0.00,25.23,29.41,31.81,13.81,44.32,1012.22,2024.99,3426.13,2981.56,3418.07,600.40,589.44,9.71,0000 0000 0000 0000 000000
2017-07-22 04:18:47,0.02,0.31,0.00,25.25,29.40,31.78,13.70,44.20,1012.22,2024.99,3425.07,2981.00,3417.04,599.84,588.79,9.76,0000 0000 0000 0000 000000
2017-07-22 04:23:48,0.00,0.31,0.00,25.27,29.40,31.78,13.72,44.17,1012.22,2024.99,3424.98,2980.99,3416.98,600.16,589.09,9.81,0000 0000 0000 0000 000000
2017-07-22 04:28:49,0.01,0.31,0.00,25.30,29.38,31.77,13.73,44.21,1012.22,2024.99,3424.66,2980.87,3416.87,599.93,588.69,9.86,0000 0000 0000 0000 000000
2017-07-22 04:33:50,0.02,0.31,0.00,25.32,29.37,31.76,13.73,44.08,1012.20,2024.99,3424.09,2980.45,3416.32,600.27,589.08,9.91,0000 0000 0000 0000 000000
2017-07-22 04:38:52,0.01,0.31,0.00,25.30,29.37,31.76,13.71,44.13,1012.17,2024.99,3423.99,2980.03,3416.02,599.98,588.77,9.96,0000 0000 0000 0000 000000
2017-07-22 04:43:53,0.00,0.31,0.00,25.27,29.35,31.77,13.77,44.13,1012.17,2024.99,3423.77,2980.00,3416.00,600.02,588.93,10.01,0000 0000 0000 0000 000000
2017-07-22 04:48:54,0.01,0.31,0.00,25.27,29.35,31.77,13.74,44.18,1012.12,2025.00,3423.19,2980.00,3415.99,600.03,588.96,10.06,0000 0000 0000 0000 000000
2017-07-22 04:53:55,0.00,0.31,0.00,25.29,29.35,31.76,13.70,44.30,1011.94,2025.00,3423.00,2979.99,3415.94,599.79,588.53,10.11,0000 0000 0000 0000 000000
2017-07-22 04:58:56,0.01,0.31,0.00,25.31,29.34,31.74,13.73,44.13,1011.83,2025.01,3422.96,2979.97,3415.61,600.05,588.58,10.16,0000 0000 0000 0000 000000
2017-07-22 05:03:57,0.03,0.31,0.00,25.32,29.33,31.73,13.68,44.20,1011.77,2025.02,3422.35,2979.66,3415.09,599.90,588.43,10.22,0000 0000 0000 0000 000000
2017-07-22 05:08:59,0.00,0.31,0.00,25.35,29.32,31.73,13.74,44.19,1011.76,2025.01,3422.02,2979.18,3415.00,600.15,588.75,10.27,0000 0000 0000 0000 000000
2017-07-22 05:14:00,0.00,0.32,0.00,25.36,29.32,31.73,13.61,44.15,1011.75,2025.03,3421.99,2979.05,3415.00,599.70,588.25,10.32,0000 0000 0000 0000 000000
2017-07-22 05:19:02,0.00,0.32,0.00,25.37,29.32,31.72,13.77,44.10,1011.75,2025.07,3421.93,2979.02,3414.98,600.15,588.64,10.37,0000 0000 0000 0000 000000
2017-07-22 05:24:03,0.01,0.32,0.00,25.35,29.32,31.73,13.74,44.19,1011.75,2025.06,3421.24,2979.00,3414.84,600.02,588.50,10.42,0000 0000 0000 0000 000000
2017-07-22 05:29:04,0.01,0.32,0.00,25.33,29.32,31.73,13.77,44.17,1011.76,2025.07,3421.01,2979.00,3414.30,600.36,588.99,10.47,0000 0000 0000 0000 000000
2017-07-22 05:34:05,0.00,0.32,0.00,25.32,29.32,31.76,13.70,44.12,1011.75,2025.08,3421.00,2979.00,3414.05,599.96,588.68,10.52,0000 0000 0000 0000 000000
2017-07-22 05:39:07,0.00,0.32,0.00,25.32,29.32,31.76,13.69,44.16,1011.74,2025.06,3420.91,2978.95,3414.00,600.22,588.73,10.57,0000 0000 0000 0000 000000
2017-07-22 05:44:08,0.02,0.32,0.00,25.34,29.32,31.75,13.65,44.19,1011.73,2025.13,3420.39,2978.87,3414.00,599.89,588.42,10.62,0000 0000 0000 0000 000000
2017-07-22 05:49:09,0.00,0.32,0.00,25.37,29.32,31.73,13.64,44.16,1011.73,2025.14,3420.05,2978.74,3414.00,599.81,588.31,10.67,0000 0000 0000 0000 000000
2017-07-22 05:54:10,0.02,0.32,0.00,25.40,29.32,31.73,13.66,44.12,1011.69,2025.24,3420.00,2978.51,3413.98,599.90,588.25,10.72,0000 0000 0000 0000 000000
2017-07-22 05:59:11,0.02,0.32,0.00,25.42,29.32,31.71,13.66,44.14,1011.45,2025.26,3419.99,2978.13,3413.90,599.78,588.00,10.77,0000 0000 0000 0000 000000
2017-07-22 06:04:12,0.01,0.32,0.00,25.45,29.32,31.71,13.68,44.11,1011.37,2025.39,3419.88,2978.05,3413.72,599.85,587.95,10.82,0000 0000 0000 0000 000000
2017-07-22 06:09:14,0.02,0.32,0.00,25.48,29.32,31.71,13.73,44.17,1011.26,2025.42,3419.48,2978.00,3413.20,599.96,587.89,10.87,0000 0000 0000 0000 000000
2017-07-22 06:14:15,-0.00,0.32,0.00,25.51,29.32,31.72,13.74,44.17,1011.26,2025.34,3419.09,2978.00,3413.04,600.09,587.93,10.92,0000 0000 0000 0000 000000
2017-07-22 06:19:17,0.03,0.32,0.00,25.53,29.32,31.72,13.65,44.07,1011.25,2025.51,3419.01,2978.00,3413.01,599.72,587.58,10.97,0000 0000 0000 0000 000000
2017-07-22 06:24:18,-0.01,0.32,0.00,25.57,29.34,31.72,13.68,44.03,1011.25,2025.44,3419.00,2977.99,3413.00,600.03,587.80,11.02,0000 0000 0000 0000 000000
2017-07-22 06:29:19,-0.02,0.32,0.00,25.59,29.35,31.72,13.67,44.06,1011.25,2025.29,3418.96,2977.96,3412.99,599.73,587.48,11.07,0000 0000 0000 0000 000000
2017-07-22 06:34:21,-0.00,0.32,0.00,25.61,29.36,31.75,13.67,44.08,1011.24,2025.21,3418.66,2977.78,3412.92,600.10,587.82,11.12,0000 0000 0000 0000 000000
2017-07-22 06:39:22,0.02,0.32,0.00,25.64,29.37,31.75,13.69,44.01,1011.23,2025.05,3418.08,2977.19,3412.50,600.08,587.72,11.17,0000 0000 0000 0000 000000
2017-07-22 06:44:24,0.01,0.32,0.00,25.66,29.38,31.76,13.68,44.09,1011.09,2025.07,3418.00,2977.08,3412.12,600.01,587.47,11.22,0000 0000 0000 0000 000000
2017-07-22 06:49:25,0.00,0.32,0.00,25.69,29.40,31.79,13.63,43.98,1011.04,2025.05,3417.99,2977.02,3412.02,599.88,587.35,11.27,0000 0000 0000 0000 000000
2017-07-22 06:54:26,-0.00,0.32,0.00,25.71,29.41,31.80,13.65,44.08,1011.10,2025.02,3417.98,2977.00,3412.00,599.70,587.26,11.32,0000 0000 0000 0000 000000
2017-07-22 06:59:28,0.00,0.32,0.00,25.73,29.42,31.81,13.75,44.08,1011.15,2025.01,3417.89,2977.00,3412.00,600.04,587.46,11.37,0000 0000 0000 0000 000000
2017-07-22 07:04:29,0.01,0.32,0.00,25.76,29.45,31.84,13.64,44.02,1011.20,2025.00,3417.33,2976.96,3411.86,599.91,587.29,11.42,0000 0000 0000 0000 000000
2017-07-22 07:09:30,0.01,0.32,0.00,25.77,29.46,31.85,13.68,44.00,1011.18,2025.00,3417.01,2976.76,3411.28,599.92,587.41,11.47,0000 0000 0000 0000 000000
2017-07-22 07:14:31,0.01,0.33,0.00,25.78,29.47,31.87,13.65,44.02,1011.07,2025.00,3417.00,2976.47,3411.09,599.91,587.24,11.52,0000 0000 0000 0000 000000
2017-07-22 07:19:33,0.00,0.33,0.00,25.81,29.50,31.88,13.66,43.99,1011.00,2025.00,3416.99,2976.08,3411.00,600.09,587.31,11.57,0000 0000 0000 0000 000000
2017-07-22 07:24:34,0.00,0.33,0.00,25.82,29.51,31.91,13.68,44.05,1010.94,2024.99,3416.91,2976.01,3411.00,599.93,587.05,11.62,0000 0000 0000 0000 000000
2017-07-22 07:29:35,0.00,0.33,0.00,25.85,29.52,31.92,13.65,44.00,1010.80,2024.97,3416.41,2976.00,3410.97,600.14,587.09,11.67,0000 0000 0000 0000 000000
2017-07-22 07:34:37,0.01,0.33,0.00,25.85,29.55,31.94,13.66,43.97,1010.78,2024.92,3416.02,2975.99,3410.68,599.81,586.78,11.72,0000 0000 0000 0000 000000
2017-07-22 07:39:38,-0.00,0.33,0.00,25.88,29.56,31.96,13.66,44.02,1010.78,2024.83,3416.00,2975.90,3410.10,599.85,586.79,11.77,0000 0000 0000 0000 000000
2017-07-22 07:44:40,-0.02,0.33,0.00,25.90,29.58,31.98,13.64,43.98,1010.78,2024.28,3415.92,2975.22,3410.00,600.18,587.13,11.82,0000 0000 0000 0000 000000
2017-07-22 07:49:41,0.01,0.33,0.00,25.91,29.60,31.99,13.63,44.02,1010.76,2024.17,3415.65,2975.05,3409.99,600.29,587.07,11.87,0000 0000 0000 0000 000000
2017-07-22 07:54:42,0.00,0.33,0.00,25.93,29.61,32.01,13.66,43.97,1010.76,2024.07,3415.12,2975.01,3409.95,600.01,586.80,11.92,0000 0000 0000 0000 000000
2017-07-22 07:59:43,0.00,0.33,0.00,25.95,29.63,32.03,13.68,44.08,1010.76,2024.04,3415.01,2975.00,3409.76,600.14,586.97,11.97,0000 0000 0000 0000 000000
2017-07-22 08:04:45,0.00,0.33,0.00,25.95,29.65,32.05,13.65,43.94,1010.76,2024.02,3415.00,2975.00,3409.32,600.09,586.94,12.02,0000 0000 0000 0000 000000
2017-07-22 08:09:46,0.00,0.33,0.00,25.96,29.67,32.07,13.63,43.89,1010.76,2024.00,3414.95,2974.93,3409.04,599.96,586.68,12.07,0000 0000 0000 0000 000000
2017-07-22 08:14:47,0.02,0.33,0.00,25.97,29.69,32.08,13.56,43.93,1010.76,2024.00,3414.53,2974.58,3409.00,599.77,586.47,12.12,0000 0000 0000 0000 000000
2017-07-22 08:19:49,0.01,0.33,0.00,26.00,29.70,32.11,13.72,43.91,1010.73,2024.00,3414.15,2974.27,3408.99,600.09,586.83,12.17,0000 0000 0000 0000 000000
2017-07-22 08:24:50,0.00,0.33,0.00,26.01,29.72,32.12,13.62,43.86,1010.70,2024.00,3414.01,2974.03,3408.91,600.13,586.79,12.22,0000 0000 0000 0000 000000
2017-07-22 08:29:52,0.01,0.33,0.00,26.02,29.74,32.14,13.74,43.90,1010.65,2024.00,3413.99,2974.00,3408.56,600.19,586.66,12.27,0000 0000 0000 0000 000000
2017-07-22 08:34:53,0.00,0.33,0.00,26.02,29.75,32.16,13.65,43.81,1010.46,2024.00,3413.97,2974.00,3408.13,600.04,586.46,12.33,0000 0000 0000 0000 000000
2017-07-22 08:39:54,0.01,0.33,0.00,26.04,29.77,32.17,13.65,43.84,1010.32,2024.00,3413.54,2973.98,3408.02,600.13,586.45,12.38,0000 0000 0000 0000 000000
2017-07-22 08:44:56,-0.00,0.33,0.00,26.05,29.77,32.18,13.64,43.86,1010.28,2023.98,3413.17,2973.97,3408.00,600.09,586.50,12.43,0000 0000 0000 0000 000000
2017-07-22 08:49:57,0.01,0.33,0.00,26.05,29.80,32.21,13.61,43.95,1010.27,2023.98,3413.03,2973.83,3408.00,600.07,586.34,12.48,0000 0000 0000 0000 000000
2017-07-22 08:54:59,0.01,0.33,0.00,26.07,29.81,32.22,13.65,43.93,1010.27,2023.95,3413.00,2973.36,3407.97,599.94,586.29,12.53,0000 0000 0000 0000 000000
2017-07-22 09:00:00,-0.00,0.33,0.00,26.07,29.82,32.24,13.58,43.94,1010.27,2023.87,3413.00,2973.07,3407.82,599.69,585.84,12.58,0000 0000 0000 0000 000000
2017-07-22 09:05:01,-0.00,0.33,0.00,26.09,29.84,32.25,13.71,43.92,1010.27,2023.69,3412.97,2973.01,3407.25,599.99,586.12,12.63,0000 0000 0000 0000 000000
2017-07-22 09:10:02,-0.01,0.33,0.00,26.10,29.85,32.26,13.62,44.01,1010.26,2023.56,3412.87,2973.00,3407.03,600.04,586.22,12.68,0000 0000 0000 0000 000000
2017-07-22 09:15:03,-0.01,0.33,0.00,26.11,29.87,32.27,13.66,43.92,1010.25,2023.37,3412.44,2973.00,3407.00,599.83,585.98,12.73,0000 0000 0000 0000 000000
2017-07-22 09:20:04,-0.00,0.33,0.00,26.12,29.87,32.28,13.67,43.98,1010.25,2023.29,3412.10,2973.00,3407.00,599.97,586.10,12.78,0000 0000 0000 0000 000000
2017-07-22 09:25:06,-0.00,0.33,0.00,26.13,29.90,32.32,13.60,43.90,1010.25,2023.21,3412.00,2972.96,3407.00,599.78,585.96,12.83,0000 0000 0000 0000 000000
2017-07-22 09:30:07,0.00,0.33,0.00,26.15,29.90,32.33,13.63,43.80,1010.23,2023.11,3412.00,2972.77,3406.94,600.06,586.10,12.88,0000 0000 0000 0000 000000
2017-07-22 09:35:08,0.01,0.33,0.00,26.15,29.92,32.34,13.67,43.85,1010.14,2023.08,3411.95,2972.27,3406.47,599.84,585.88,12.93,0000 0000 0000 0000 000000
2017-07-22 09:40:09,0.01,0.33,0.00,26.16,29.93,32.35,13.61,43.77,1009.95,2023.06,3411.70,2972.03,3406.08,599.81,585.71,12.98,0000 0000 0000 0000 000000
2017-07-22 09:45:10,0.00,0.33,0.00,26.17,29.95,32.36,13.57,43.81,1009.90,2023.03,3411.12,2972.00,3406.00,599.82,585.78,13.03,0000 0000 0000 0000 000000
2017-07-22 09:50:12,0.00,0.33,0.00,26.17,29.95,32.37,13.58,43.91,1009.86,2023.00,3411.00,2972.00,3405.99,599.51,585.28,13.08,0000 0000 0000 0000 000000
2017-07-22 09:55:13,0.00,0.33,0.00,26.19,29.97,32.39,13.66,43.90,1009.79,2023.00,3410.98,2971.99,3405.94,600.09,585.78,13.13,0000 0000 0000 0000 000000
2017-07-22 10:00:15,0.02,0.33,0.00,26.20,29.97,32.40,13.65,43.93,1009.78,2023.00,3410.53,2971.86,3405.39,600.04,585.73,13.18,0000 0000 0000 0000 000000
2017-07-22 10:05:16,0.02,0.33,0.00,26.21,30.00,32.41,13.65,43.82,1009.78,2023.00,3410.04,2971.42,3405.06,600.20,585.84,13.23,0000 0000 0000 0000 000000
2017-07-22 10:10:17,0.00,0.33,0.00,26.22,30.00,32.42,13.61,43.81,1009.78,2023.00,3410.00,2971.08,3405.00,599.82,585.49,13.28,0000 0000 0000 0000 000000
2017-07-22 10:15:18,0.00,0.33,0.00,26.22,30.02,32.43,13.65,43.79,1009.78,2023.00,3410.00,2971.01,3405.00,600.07,585.85,13.33,0000 0000 0000 0000 000000
2017-07-22 10:20:20,0.00,0.33,0.00,26.22,30.02,32.45,13.66,43.77,1009.77,2023.00,3409.99,2971.01,3405.00,600.08,585.65,13.38,0000 0000 0000 0000 000000
2017-07-22 10:25:21,-0.00,0.33,0.00,26.23,30.04,32.45,13.60,43.80,1009.77,2022.99,3409.89,2971.00,3404.94,599.75,585.46,13.43,0000 0000 0000 0000 000000
2017-07-22 10:30:22,0.01,0.33,0.00,26.25,30.05,32.47,13.65,43.85,1009.72,2022.98,3409.33,2970.99,3404.55,599.79,585.34,13.48,0000 0000 0000 0000 000000
2017-07-22 10:35:24,0.01,0.34,0.00,26.25,30.06,32.48,13.66,43.84,1009.68,2022.97,3409.05,2970.96,3404.11,600.16,585.73,13.53,0000 0000 0000 0000 000000
2017-07-22 10:40:25,0.00,0.34,0.00,26.27,30.07,32.49,13.66,43.83,1009.62,2022.94,3409.00,2970.93,3404.02,599.99,585.44,13.58,0000 0000 0000 0000 000000
2017-07-22 10:45:27,0.01,0.34,0.00,26.27,30.08,32.49,13.61,43.78,1009.63,2022.96,3409.00,2970.66,3404.00,599.70,585.21,13.63,0000 0000 0000 0000 000000
2017-07-22 10:50:28,0.01,0.34,0.00,26.27,30.10,32.51,13.69,43.81,1009.46,2022.91,3408.86,2970.23,3403.99,600.41,585.77,13.68,0000 0000 0000 0000 000000
2017-07-22 10:55:29,-0.00,0.34,0.00,26.27,30.10,32.52,13.61,43.82,1009.38,2022.80,3408.36,2970.03,3403.96,599.89,585.18,13.73,0000 0000 0000 0000 000000
2017-07-22 11:00:30,-0.00,0.34,0.00,26.29,30.11,32.52,13.62,43.86,1009.33,2022.71,3408.07,2970.00,3403.78,600.15,585.37,13.78,0000 0000 0000 0000 000000
2017-07-22 11:05:32,-0.01,0.34,0.00,26.29,30.12,32.55,13.65,43.80,1009.32,2022.49,3408.02,2970.00,3403.40,600.14,585.44,13.83,0000 0000 0000 0000 000000
2017-07-22 11:10:33,-0.03,0.33,0.00,26.30,30.13,32.56,13.61,43.81,1009.30,2022.17,3408.00,2970.00,3403.04,599.85,585.02,13.88,0000 0000 0000 0000 000000
2017-07-22 11:15:34,-0.00,0.33,0.00,26.30,30.15,32.57,13.54,43.83,1009.30,2022.09,3407.99,2969.98,3403.00,599.99,585.28,13.93,0000 0000 0000 0000 000000
2017-07-22 11:20:35,0.00,0.33,0.00,26.31,30.15,32.57,13.66,43.78,1009.29,2022.03,3407.84,2969.89,3403.00,600.11,585.20,13.98,0000 0000 0000 0000 000000
2017-07-22 11:25:37,0.01,0.33,0.00,26.31,30.16,32.58,13.70,43.83,1009.29,2022.03,3407.55,2969.70,3402.98,599.93,585.19,14.03,0000 0000 0000 0000 000000
2017-07-22 11:30:38,0.02,0.34,0.00,26.32,30.17,32.59,13.64,43.74,1009.29,2022.01,3407.07,2969.27,3402.76,600.13,585.29,14.08,0000 0000 0000 0000 000000
2017-07-22 11:35:39,0.00,0.34,0.00,26.32,30.17,32.60,13.61,43.82,1009.26,2022.00,3407.00,2969.01,3402.18,599.98,585.05,14.13,0000 0000 0000 0000 000000
2017-07-22 11:40:40,0.00,0.34,0.00,26.32,30.19,32.61,13.56,43.76,1009.17,2022.00,3406.98,2969.00,3402.02,599.91,585.06,14.18,0000 0000 0000 0000 000000
2017-07-22 11:45:42,0.00,0.34,0.00,26.32,30.20,32.62,13.60,43.84,1009.23,2022.00,3406.70,2969.00,3402.00,599.90,585.06,14.23,0000 0000 0000 0000 000000
2017-07-22 11:50:43,0.00,0.34,0.00,26.32,30.20,32.62,13.63,43.86,1009.21,2022.00,3406.09,2968.98,3401.98,599.81,584.94,14.28,0000 0000 0000 0000 000000
2017-07-22 11:55:44,0.01,0.34,0.00,26.33,30.21,32.64,13.64,43.88,1009.09,2021.99,3406.00,2968.71,3401.60,599.85,584.93,14.33,0000 0000 0000 0000 000000
2017-07-22 12:00:45,0.02,0.34,0.00,26.34,30.22,32.64,13.59,43.85,1008.88,2021.99,3405.67,2968.26,3401.07,599.64,584.52,14.38,0000 0000 0000 0000 000000
2017-07-22 12:05:47,0.01,0.34,0.00,26.33,30.22,32.65,13.64,43.80,1008.85,2021.99,3405.03,2968.02,3401.00,600.04,584.94,14.43,0000 0000 0000 0000 000000
2017-07-22 12:10:48,0.00,0.34,0.00,26.35,30.23,32.66,13.66,43.80,1008.81,2021.99,3404.95,2967.99,3400.91,600.06,584.95,14.49,0000 0000 0000 0000 000000
2017-07-22 12:15:50,0.02,0.34,0.00,26.35,30.25,32.66,13.57,43.80,1008.81,2021.99,3404.32,2967.89,3400.24,599.80,584.68,14.54,0000 0000 0000 0000 000000
2017-07-22 12:20:51,0.02,0.34,0.00,26.35,30.25,32.68,13.70,43.77,1008.81,2021.99,3404.00,2967.36,3400.00,600.26,585.05,14.59,0000 0000 0000 0000 000000
2017-07-22 12:25:52,0.02,0.34,0.00,26.36,30.25,32.68,13.63,43.90,1008.80,2021.98,3403.64,2967.04,3399.92,600.17,585.00,14.64,0000 0000 0000 0000 000000
2017-07-22 12:30:54,0.02,0.34,0.00,26.37,30.27,32.69,13.68,43.77,1008.80,2021.96,3403.03,2966.99,3399.21,600.13,584.98,14.69,0000 0000 0000 0000 000000
2017-07-22 12:35:55,0.02,0.34,0.00,26.37,30.27,32.69,13.57,43.78,1008.78,2021.96,3402.69,2966.74,3399.00,599.83,584.62,14.74,0000 0000 0000 0000 000000
2017-07-22 12:40:56,0.02,0.35,0.00,26.38,30.27,32.70,13.60,43.70,1008.64,2021.85,3402.01,2966.04,3398.44,599.91,584.59,14.79,0000 0000 0000 0000 000000
2017-07-22 12:45:58,0.00,0.35,0.00,26.39,30.29,32.71,13.54,43.77,1008.38,2021.73,3401.47,2966.00,3398.01,599.76,584.28,14.84,0000 0000 0000 0000 000000
2017-07-22 12:50:59,0.03,0.35,0.00,26.39,30.30,32.71,13.60,43.76,1008.33,2021.81,3401.00,2965.87,3397.89,599.71,584.28,14.89,0000 0000 0000 0000 000000
2017-07-22 12:56:00,0.05,0.35,0.00,26.40,30.30,32.72,13.64,43.76,1008.32,2021.85,3400.42,2965.20,3397.19,599.80,584.25,14.94,0000 0000 0000 0000 000000